Location: Contre
(49.7477°N, 2.0963°E)
Time: 18:30:28
(UTC+00:00)

Feng Yun 1-1 Rocket - Pass Details

Date: 03 February 2023
Orbit: 830 x 933 km, 99.1° (Epoch: 26 March)

Event Time Altitude Azimuth Distance (km) Brightness Sun altitude
Rises 18:29:45 0° 148° (SSE) 3,451 7.1 -16.4°
Reaches altitude 10° 18:32:11 10° 144° (SE) 2,503 6.4 -16.7°
Maximum altitude 18:37:35 56° 68° (ENE) 1,013 4.2 -17.6°
Drops below altitude 10° 18:42:54 10° 352° (N) 2,466 6.7 -18.5°
Sets 18:45:17 0° 348° (NNW) 3,397 7.5 -18.8°
